Regional Weather Roundup
Issued by NWS

Home | Current Version | Previous Version | Graphics & Text | Print | Product List | Glossary On
Versions: 1 2 3 4 5 6 7 8 9 10 11 12 13 14 15 16 17 18 19 20 21 22 23 24 25 26 27 28 29 30 31 32 33 34 35 36 37 38 39 40 41 42 43 44 45 46 47 48 49 50
000
ASUS45 KCYS 310310
RWRWY

WYOMING REGIONAL WEATHER ROUNDUP
NATIONAL WEATHER SERVICE CHEYENNE WY
800 PM MST FRI JAN 30 2015

NOTE:  "FAIR" INDICATES FEW OR NO CLOUDS BELOW 12,000 FEET
WITH NO SIGNIFICANT WEATHER AND/OR OBSTRUCTIONS TO VISIBILITY.

WYZ001-310400-
YELLOWSTONE NATIONAL PARK

CITY           SKY/WX    TMP DP  RH WIND       PRES   REMARKS
LK YELLOWSTONE   N/A      5   1  83 CALM      30.13S
W YELLOWSTONE  NOT AVBL

$$
WYZ002>013-054>058-071-098>099-310400-
NORTHERN WYOMING

CITY           SKY/WX    TMP DP  RH WIND       PRES   REMARKS
JACKSON        CLEAR     18  14  86 VRB5      30.11F WCI  11
CODY           FAIR      28  23  80 S5        30.10F WCI  23
GREYBULL       FOG       28  26  92 CALM      30.15F VSB 1/4
WORLAND        FAIR      24  21  88 S3        30.13F
SHERIDAN       FAIR      27  20  75 CALM      30.09F
BUFFALO        FAIR      32  19  58 SW3       30.11F
GILLETTE       FAIR      26  23  88 S6        30.11F WCI  19
HULETT           N/A    N/A N/A N/A MISG        N/A
NEWCASTLE      FAIR      34  27  75 SE9       30.12F WCI  26

$$
WYZ014>020-022>026-101>103-310400-
CENTRAL WYOMING

CITY           SKY/WX    TMP DP  RH WIND       PRES   REMARKS
BIG PINEY      CLOUDY    27  22  81 N6        30.09S WCI  20
PINEDALE       CLOUDY    27  19  74 W5        30.09S WCI  21
DUBOIS         FAIR      28  19  69 CALM      30.11F
LANDER         MOCLDY    33  25  72 W5        30.10F WCI  29
RIVERTON       FAIR      31  26  82 NW5       30.12F WCI  26
CASPER         FAIR      30  22  72 N7        30.11F WCI  23
DOUGLAS        FAIR      32  23  69 NW3       30.12F

$$
WYZ021-027>030-104>119-310400-
SOUTHERN WYOMING

CITY           SKY/WX    TMP DP  RH WIND       PRES   REMARKS
EVANSTON       CLOUDY    33  27  78 NE8       30.04R WCI  26
KEMMERER       CLOUDY    32  27  80 NE17      30.05S WCI  21
FORT BRIDGER   LGT SNOW  33  32  96 NE6       30.08S WCI  28
ROCK SPRINGS   CLOUDY    30  27  88 NE20      30.05S WCI  17
DIXON          CLOUDY    37  32  81 NE9       30.02S WCI  31
RAWLINS        CLOUDY    34  22  61 NE9       30.06F WCI  27
SARATOGA       CLOUDY    34  32  93 MISG      30.04F
LARAMIE        FAIR      32  26  78 SE6       30.07F WCI  26
CHEYENNE       FAIR      35  19  52 N9        30.07F WCI  28
TORRINGTON     FAIR      37  27  67 CALM      30.11S
PINE BLUFFS    FAIR      32  27  80 NW7       30.08F WCI  26

$$



USA.gov is the U.S. government's official web portal to all federal, state and local government web resources and services.